This is the latest recevied weather packets stored in our database for station/object LU3HGB-WX. If no packets are shown the sender has not sent any weather packets the latest 10 day(s).
| Time | Temp. | Humidity | Pressure | Rain* | Wind** | Luminosity | Snow |
|---|---|---|---|---|---|---|---|
| 1777705959 | 10.56° C | 81% | 1021 hPa | 0 mm | - | 0 W/m² | - |
| 1777705659 | 10.56° C | 80% | 1021 hPa | 0 mm | - | 0 W/m² | - |
| 1777705359 | 10.56° C | 80% | 1021 hPa | 0 mm | - | 0 W/m² | - |
| 1777705062 | 10.56° C | 79% | 1021 hPa | 0 mm | - | 0 W/m² | - |
| 1777704759 | 10° C | 80% | 1021 hPa | 0 mm | - | 0 W/m² | - |
| 1777704460 | 10° C | 81% | 1021 hPa | 0 mm | - | 0 W/m² | - |
| 1777704160 | 10.56° C | 79% | 1021 hPa | 0 mm | - | 0 W/m² | - |
| 1777703859 | 10.56° C | 78% | 1021 hPa | 0 mm | - | 0 W/m² | - |
| 1777703559 | 11.11° C | 77% | 1021 hPa | 0 mm | - | 0 W/m² | - |
| 1777703261 | 11.11° C | 74% | 1021 hPa | 0 mm | - | 0 W/m² | - |
| 1777702960 | 10.56° C | 76% | 1021 hPa | 0 mm | - | 0 W/m² | - |
| 1777702659 | 11.11° C | 77% | 1021 hPa | 0 mm | - | 0 W/m² | - |
| 1777702360 | 11.11° C | 78% | 1021 hPa | 0 mm | - | 0 W/m² | - |
| 1777702059 | 11.67° C | 77% | 1021 hPa | 0 mm | - | 0 W/m² | - |
| 1777701759 | 12.22° C | 74% | 1021 hPa | 0 mm | - | 0 W/m² | - |
| 1777701459 | 12.78° C | 68% | 1021 hPa | 0 mm | - | 0 W/m² | - |
| 1777701159 | 13.89° C | 66% | 1021 hPa | 0 mm | - | 0 W/m² | - |
| 1777700859 | 15° C | 58% | 1021 hPa | 0 mm | - | 0 W/m² | - |
| 1777700560 | 15° C | 45% | 1021 hPa | 0 mm | - | 0 W/m² | - |
| 1777700259 | 15° C | 43% | 1021 hPa | 0 mm | - | 0 W/m² | - |
| 1777699959 | 14.44° C | 43% | 1021 hPa | 0 mm | - | 0 W/m² | - |
| 1777699660 | 14.44° C | 55% | 1021 hPa | 0 mm | - | 0 W/m² | - |
| 1777699359 | 14.44° C | 51% | 1021 hPa | 0 mm | - | 0 W/m² | - |
| 1777699060 | 14.44° C | 50% | 1021 hPa | 0 mm | - | 0 W/m² | - |
| 1777698759 | 13.33° C | 50% | 1021 hPa | 0 mm | - | 0 W/m² | - |
* Rain latest hour (hover to see other rain measurements)
** Current wind speed in m/s (hover to see current wind gust speed)